<?xml version="1.0" encoding="UTF-8" standalone="no" ?>
<gpx xmlns="http://www.topografix.com/GPX/1/1" xmlns:xsi="http://www.w3.org/2001/XMLSchema-instance" xsi:schemaLocation="http://www.topografix.com/GPX/1/1 http://www.topografix.com/GPX/1/1/gpx.xsd" version="1.1" creator="VisuGPX - https://www.visugpx.com">
  <metadata>
    <name>Tréminis Chichilianne MAJ</name>
  </metadata>
  <trk>
    <name><![CDATA[4Chemins -Chatillon-en-Diois]]></name>
    <trkseg>
      <trkpt lat="44.8097" lon="5.57731">
        <ele>1001</ele>
        <time>2009-01-29T14:36:51Z</time>
      </trkpt>
      <trkpt lat="44.80872" lon="5.57668">
        <ele>1014</ele>
        <time>2009-01-29T14:36:51Z</time>
      </trkpt>
      <trkpt lat="44.80824" lon="5.57625">
        <ele>1023</ele>
        <time>2009-01-29T14:36:51Z</time>
      </trkpt>
      <trkpt lat="44.80779" lon="5.57571">
        <ele>1030</ele>
        <time>2009-01-29T14:36:51Z</time>
      </trkpt>
      <trkpt lat="44.80731" lon="5.57502">
        <ele>1036</ele>
        <time>2009-01-29T14:36:51Z</time>
      </trkpt>
      <trkpt lat="44.80679" lon="5.57449">
        <ele>1044</ele>
        <time>2009-01-29T14:36:51Z</time>
      </trkpt>
      <trkpt lat="44.80646" lon="5.57409">
        <ele>1051</ele>
        <time>2009-01-29T14:36:51Z</time>
      </trkpt>
      <trkpt lat="44.80552" lon="5.57245">
        <ele>1070</ele>
        <time>2009-01-29T14:36:51Z</time>
      </trkpt>
      <trkpt lat="44.80532" lon="5.57247">
        <ele>1073</ele>
        <time>2009-01-29T14:36:51Z</time>
      </trkpt>
      <trkpt lat="44.80463" lon="5.57265">
        <ele>1079</ele>
        <time>2009-01-29T14:36:51Z</time>
      </trkpt>
      <trkpt lat="44.804" lon="5.5729">
        <ele>1083</ele>
        <time>2009-01-29T14:36:51Z</time>
      </trkpt>
      <trkpt lat="44.80318" lon="5.5732">
        <ele>1087</ele>
        <time>2009-01-29T14:36:51Z</time>
      </trkpt>
      <trkpt lat="44.80245" lon="5.57335">
        <ele>1090</ele>
        <time>2009-01-29T14:36:51Z</time>
      </trkpt>
      <trkpt lat="44.80106" lon="5.57343">
        <ele>1100</ele>
        <time>2009-01-29T14:36:51Z</time>
      </trkpt>
      <trkpt lat="44.80049" lon="5.57365">
        <ele>1104</ele>
        <time>2009-01-29T14:36:51Z</time>
      </trkpt>
      <trkpt lat="44.79985" lon="5.57393">
        <ele>1107</ele>
        <time>2009-01-29T14:36:51Z</time>
      </trkpt>
      <trkpt lat="44.79934" lon="5.57377">
        <ele>1117</ele>
        <time>2009-01-29T14:36:51Z</time>
      </trkpt>
      <trkpt lat="44.79921" lon="5.57357">
        <ele>1124</ele>
        <time>2009-01-29T14:36:51Z</time>
      </trkpt>
      <trkpt lat="44.79852" lon="5.57183">
        <ele>1158</ele>
        <time>2009-01-29T14:36:51Z</time>
      </trkpt>
      <trkpt lat="44.79814" lon="5.57152">
        <ele>1171</ele>
        <time>2009-01-29T14:36:51Z</time>
      </trkpt>
      <trkpt lat="44.79827" lon="5.57093">
        <ele>1183</ele>
        <time>2009-01-29T14:36:51Z</time>
      </trkpt>
      <trkpt lat="44.79801" lon="5.57075">
        <ele>1191</ele>
        <time>2009-01-29T14:36:51Z</time>
      </trkpt>
      <trkpt lat="44.79813" lon="5.57048">
        <ele>1195</ele>
        <time>2009-01-29T14:36:51Z</time>
      </trkpt>
      <trkpt lat="44.79788" lon="5.57034">
        <ele>1202</ele>
        <time>2009-01-29T14:36:51Z</time>
      </trkpt>
      <trkpt lat="44.7979" lon="5.56967">
        <ele>1211</ele>
        <time>2009-01-29T14:36:51Z</time>
      </trkpt>
      <trkpt lat="44.79757" lon="5.5688">
        <ele>1226</ele>
        <time>2009-01-29T14:36:51Z</time>
      </trkpt>
      <trkpt lat="44.79752" lon="5.5682">
        <ele>1231</ele>
        <time>2009-01-29T14:36:51Z</time>
      </trkpt>
      <trkpt lat="44.7973" lon="5.56784">
        <ele>1238</ele>
        <time>2009-01-29T14:36:51Z</time>
      </trkpt>
      <trkpt lat="44.79697" lon="5.56779">
        <ele>1244</ele>
        <time>2009-01-29T14:36:51Z</time>
      </trkpt>
      <trkpt lat="44.79659" lon="5.56761">
        <ele>1247</ele>
        <time>2009-01-29T14:36:51Z</time>
      </trkpt>
      <trkpt lat="44.79606" lon="5.56742">
        <ele>1253</ele>
        <time>2009-01-29T14:36:51Z</time>
      </trkpt>
      <trkpt lat="44.79565" lon="5.56755">
        <ele>1255</ele>
        <time>2009-01-29T14:36:51Z</time>
      </trkpt>
      <trkpt lat="44.79535" lon="5.56757">
        <ele>1261</ele>
        <time>2009-01-29T14:36:51Z</time>
      </trkpt>
      <trkpt lat="44.79532" lon="5.56734">
        <ele>1268</ele>
        <time>2009-01-29T14:36:51Z</time>
      </trkpt>
      <trkpt lat="44.79538" lon="5.56678">
        <ele>1284</ele>
        <time>2009-01-29T14:36:51Z</time>
      </trkpt>
      <trkpt lat="44.79549" lon="5.56609">
        <ele>1302</ele>
        <time>2009-01-29T14:36:51Z</time>
      </trkpt>
      <trkpt lat="44.79553" lon="5.56375">
        <ele>1373</ele>
        <time>2009-01-29T14:36:51Z</time>
      </trkpt>
      <trkpt lat="44.7962" lon="5.56329">
        <ele>1371</ele>
        <time>2009-01-29T14:36:51Z</time>
      </trkpt>
      <trkpt lat="44.79533" lon="5.56289">
        <ele>1408</ele>
        <time>2009-01-29T14:36:51Z</time>
      </trkpt>
      <trkpt lat="44.79518" lon="5.56259">
        <ele>1422</ele>
        <time>2009-01-29T14:36:51Z</time>
      </trkpt>
      <trkpt lat="44.79538" lon="5.56267">
        <ele>1418</ele>
        <time>2009-01-29T14:36:51Z</time>
      </trkpt>
      <trkpt lat="44.79508" lon="5.56234">
        <ele>1437</ele>
        <time>2009-01-29T14:36:51Z</time>
      </trkpt>
      <trkpt lat="44.79551" lon="5.56233">
        <ele>1437</ele>
        <time>2009-01-29T14:36:51Z</time>
      </trkpt>
      <trkpt lat="44.79477" lon="5.56127">
        <ele>1490</ele>
        <time>2009-01-29T14:36:51Z</time>
      </trkpt>
      <trkpt lat="44.79452" lon="5.56151">
        <ele>1477</ele>
        <time>2009-01-29T14:36:51Z</time>
      </trkpt>
      <trkpt lat="44.79459" lon="5.56063">
        <ele>1525</ele>
        <time>2009-01-29T14:36:51Z</time>
      </trkpt>
      <trkpt lat="44.79432" lon="5.56059">
        <ele>1531</ele>
        <time>2009-01-29T14:36:51Z</time>
      </trkpt>
      <trkpt lat="44.79444" lon="5.56018">
        <ele>1551</ele>
        <time>2009-01-29T14:36:51Z</time>
      </trkpt>
      <trkpt lat="44.79435" lon="5.55989">
        <ele>1565</ele>
        <time>2009-01-29T14:36:51Z</time>
      </trkpt>
      <trkpt lat="44.79443" lon="5.55964">
        <ele>1578</ele>
        <time>2009-01-29T14:36:51Z</time>
      </trkpt>
      <trkpt lat="44.79425" lon="5.55965">
        <ele>1575</ele>
        <time>2009-01-29T14:36:51Z</time>
      </trkpt>
      <trkpt lat="44.79421" lon="5.55939">
        <ele>1587</ele>
        <time>2009-01-29T14:36:51Z</time>
      </trkpt>
      <trkpt lat="44.794" lon="5.55937">
        <ele>1593</ele>
        <time>2009-01-29T14:36:51Z</time>
      </trkpt>
      <trkpt lat="44.79393" lon="5.55922">
        <ele>1600</ele>
        <time>2009-01-29T14:36:51Z</time>
      </trkpt>
      <trkpt lat="44.79353" lon="5.55923">
        <ele>1609</ele>
        <time>2009-01-29T14:36:51Z</time>
      </trkpt>
      <trkpt lat="44.79342" lon="5.5593">
        <ele>1609</ele>
        <time>2009-01-29T14:36:51Z</time>
      </trkpt>
      <trkpt lat="44.79332" lon="5.5591">
        <ele>1616</ele>
        <time>2009-01-29T14:36:51Z</time>
      </trkpt>
      <trkpt lat="44.79337" lon="5.5589">
        <ele>1621</ele>
        <time>2009-01-29T14:36:51Z</time>
      </trkpt>
      <trkpt lat="44.79294" lon="5.5588">
        <ele>1634</ele>
        <time>2009-01-29T14:36:51Z</time>
      </trkpt>
      <trkpt lat="44.7927" lon="5.55896">
        <ele>1636</ele>
        <time>2009-01-29T14:36:51Z</time>
      </trkpt>
      <trkpt lat="44.79276" lon="5.55858">
        <ele>1646</ele>
        <time>2009-01-29T14:36:51Z</time>
      </trkpt>
      <trkpt lat="44.79237" lon="5.55799">
        <ele>1670</ele>
        <time>2009-01-29T14:36:51Z</time>
      </trkpt>
      <trkpt lat="44.79213" lon="5.5578">
        <ele>1672</ele>
        <time>2009-01-29T14:36:51Z</time>
      </trkpt>
      <trkpt lat="44.79027" lon="5.55834">
        <ele>1668</ele>
        <time>2009-01-29T14:36:51Z</time>
      </trkpt>
      <trkpt lat="44.78993" lon="5.55798">
        <ele>1668</ele>
        <time>2009-01-29T14:36:51Z</time>
      </trkpt>
      <trkpt lat="44.78951" lon="5.55772">
        <ele>1667</ele>
        <time>2009-01-29T14:36:51Z</time>
      </trkpt>
      <trkpt lat="44.78875" lon="5.55782">
        <ele>1661</ele>
        <time>2009-01-29T14:36:51Z</time>
      </trkpt>
      <trkpt lat="44.7885" lon="5.55766">
        <ele>1660</ele>
        <time>2009-01-29T14:36:51Z</time>
      </trkpt>
      <trkpt lat="44.78828" lon="5.55758">
        <ele>1658</ele>
        <time>2009-01-29T14:36:51Z</time>
      </trkpt>
      <trkpt lat="44.7878" lon="5.55798">
        <ele>1654</ele>
        <time>2009-01-29T14:36:51Z</time>
      </trkpt>
      <trkpt lat="44.78756" lon="5.55808">
        <ele>1651</ele>
        <time>2009-01-29T14:36:51Z</time>
      </trkpt>
      <trkpt lat="44.7869" lon="5.55832">
        <ele>1646</ele>
        <time>2009-01-29T14:36:51Z</time>
      </trkpt>
      <trkpt lat="44.78647" lon="5.55884">
        <ele>1643</ele>
        <time>2009-01-29T14:36:51Z</time>
      </trkpt>
      <trkpt lat="44.78617" lon="5.55918">
        <ele>1640</ele>
        <time>2009-01-29T14:36:51Z</time>
      </trkpt>
      <trkpt lat="44.78552" lon="5.55973">
        <ele>1634</ele>
        <time>2009-01-29T14:36:51Z</time>
      </trkpt>
      <trkpt lat="44.78524" lon="5.56066">
        <ele>1628</ele>
        <time>2009-01-29T14:36:51Z</time>
      </trkpt>
      <trkpt lat="44.78505" lon="5.56097">
        <ele>1625</ele>
        <time>2009-01-29T14:36:51Z</time>
      </trkpt>
      <trkpt lat="44.78483" lon="5.56137">
        <ele>1624</ele>
        <time>2009-01-29T14:36:51Z</time>
      </trkpt>
      <trkpt lat="44.78447" lon="5.56174">
        <ele>1622</ele>
        <time>2009-01-29T14:36:51Z</time>
      </trkpt>
      <trkpt lat="44.78416" lon="5.5622">
        <ele>1622</ele>
        <time>2009-01-29T14:36:51Z</time>
      </trkpt>
      <trkpt lat="44.78384" lon="5.56257">
        <ele>1621</ele>
        <time>2009-01-29T14:36:51Z</time>
      </trkpt>
      <trkpt lat="44.78347" lon="5.56263">
        <ele>1616</ele>
        <time>2009-01-29T14:36:51Z</time>
      </trkpt>
      <trkpt lat="44.78317" lon="5.56245">
        <ele>1612</ele>
        <time>2009-01-29T14:36:51Z</time>
      </trkpt>
      <trkpt lat="44.78283" lon="5.56226">
        <ele>1609</ele>
        <time>2009-01-29T14:36:51Z</time>
      </trkpt>
      <trkpt lat="44.78254" lon="5.56201">
        <ele>1607</ele>
        <time>2009-01-29T14:36:51Z</time>
      </trkpt>
      <trkpt lat="44.78249" lon="5.5618">
        <ele>1608</ele>
        <time>2009-01-29T14:36:51Z</time>
      </trkpt>
      <trkpt lat="44.78267" lon="5.56149">
        <ele>1611</ele>
        <time>2009-01-29T14:36:51Z</time>
      </trkpt>
      <trkpt lat="44.78235" lon="5.56125">
        <ele>1611</ele>
        <time>2009-01-29T14:36:51Z</time>
      </trkpt>
      <trkpt lat="44.7825" lon="5.5609">
        <ele>1614</ele>
        <time>2009-01-29T14:36:51Z</time>
      </trkpt>
      <trkpt lat="44.78272" lon="5.56063">
        <ele>1618</ele>
        <time>2009-01-29T14:36:51Z</time>
      </trkpt>
      <trkpt lat="44.78287" lon="5.55999">
        <ele>1624</ele>
        <time>2009-01-29T14:36:51Z</time>
      </trkpt>
      <trkpt lat="44.78291" lon="5.55955">
        <ele>1629</ele>
        <time>2009-01-29T14:36:51Z</time>
      </trkpt>
      <trkpt lat="44.78376" lon="5.55852">
        <ele>1649</ele>
        <time>2009-01-29T14:36:51Z</time>
      </trkpt>
      <trkpt lat="44.78408" lon="5.55807">
        <ele>1656</ele>
        <time>2009-01-29T14:36:51Z</time>
      </trkpt>
      <trkpt lat="44.78433" lon="5.55736">
        <ele>1663</ele>
        <time>2009-01-29T14:36:51Z</time>
      </trkpt>
      <trkpt lat="44.78461" lon="5.55663">
        <ele>1667</ele>
        <time>2009-01-29T14:36:51Z</time>
      </trkpt>
      <trkpt lat="44.78505" lon="5.5562">
        <ele>1669</ele>
        <time>2009-01-29T14:36:51Z</time>
      </trkpt>
      <trkpt lat="44.78563" lon="5.55572">
        <ele>1667</ele>
        <time>2009-01-29T14:36:51Z</time>
      </trkpt>
      <trkpt lat="44.78578" lon="5.55551">
        <ele>1668</ele>
        <time>2009-01-29T14:36:51Z</time>
      </trkpt>
      <trkpt lat="44.78621" lon="5.55547">
        <ele>1661</ele>
        <time>2009-01-29T14:36:51Z</time>
      </trkpt>
      <trkpt lat="44.78647" lon="5.55516">
        <ele>1661</ele>
        <time>2009-01-29T14:36:51Z</time>
      </trkpt>
      <trkpt lat="44.78653" lon="5.55413">
        <ele>1684</ele>
        <time>2009-01-29T14:36:51Z</time>
      </trkpt>
      <trkpt lat="44.78634" lon="5.55349">
        <ele>1703</ele>
        <time>2009-01-29T14:36:51Z</time>
      </trkpt>
      <trkpt lat="44.78628" lon="5.55222">
        <ele>1726</ele>
        <time>2009-01-29T14:36:51Z</time>
      </trkpt>
      <trkpt lat="44.7865" lon="5.55099">
        <ele>1738</ele>
        <time>2009-01-29T14:36:51Z</time>
      </trkpt>
      <trkpt lat="44.78672" lon="5.55">
        <ele>1754</ele>
        <time>2009-01-29T14:36:51Z</time>
      </trkpt>
      <trkpt lat="44.78704" lon="5.54953">
        <ele>1761</ele>
        <time>2009-01-29T14:36:51Z</time>
      </trkpt>
      <trkpt lat="44.78722" lon="5.54905">
        <ele>1767</ele>
        <time>2009-01-29T14:36:51Z</time>
      </trkpt>
      <trkpt lat="44.78739" lon="5.54833">
        <ele>1772</ele>
        <time>2009-01-29T14:36:51Z</time>
      </trkpt>
      <trkpt lat="44.78742" lon="5.54759">
        <ele>1778</ele>
        <time>2009-01-29T14:36:51Z</time>
      </trkpt>
      <trkpt lat="44.7874" lon="5.54707">
        <ele>1780</ele>
        <time>2009-01-29T14:36:51Z</time>
      </trkpt>
      <trkpt lat="44.78718" lon="5.54589">
        <ele>1784</ele>
        <time>2009-01-29T14:36:51Z</time>
      </trkpt>
      <trkpt lat="44.78687" lon="5.54478">
        <ele>1790</ele>
        <time>2009-01-29T14:36:51Z</time>
      </trkpt>
      <trkpt lat="44.78657" lon="5.54402">
        <ele>1799</ele>
        <time>2009-01-29T14:36:51Z</time>
      </trkpt>
      <trkpt lat="44.78634" lon="5.54355">
        <ele>1808</ele>
        <time>2009-01-29T14:36:51Z</time>
      </trkpt>
      <trkpt lat="44.78621" lon="5.54297">
        <ele>1811</ele>
        <time>2009-01-29T14:36:51Z</time>
      </trkpt>
      <trkpt lat="44.78618" lon="5.54245">
        <ele>1811</ele>
        <time>2009-01-29T14:36:51Z</time>
      </trkpt>
      <trkpt lat="44.78526" lon="5.54088">
        <ele>1818</ele>
        <time>2009-01-29T14:36:51Z</time>
      </trkpt>
      <trkpt lat="44.78478" lon="5.53976">
        <ele>1819</ele>
        <time>2009-01-29T14:36:51Z</time>
      </trkpt>
      <trkpt lat="44.78382" lon="5.5378">
        <ele>1829</ele>
        <time>2009-01-29T14:36:51Z</time>
      </trkpt>
      <trkpt lat="44.78275" lon="5.53511">
        <ele>1851</ele>
        <time>2009-01-29T14:36:51Z</time>
      </trkpt>
      <trkpt lat="44.78208" lon="5.53176">
        <ele>1867</ele>
        <time>2009-01-29T14:36:51Z</time>
      </trkpt>
      <trkpt lat="44.78149" lon="5.52913">
        <ele>1849</ele>
        <time>2009-01-29T14:36:51Z</time>
      </trkpt>
      <trkpt lat="44.78112" lon="5.52778">
        <ele>1843</ele>
        <time>2009-01-29T14:36:51Z</time>
      </trkpt>
      <trkpt lat="44.78093" lon="5.52743">
        <ele>1841</ele>
        <time>2009-01-29T14:36:51Z</time>
      </trkpt>
      <trkpt lat="44.78083" lon="5.52701">
        <ele>1841</ele>
        <time>2009-01-29T14:36:51Z</time>
      </trkpt>
      <trkpt lat="44.78023" lon="5.52577">
        <ele>1838</ele>
        <time>2009-01-29T14:36:51Z</time>
      </trkpt>
      <trkpt lat="44.77901" lon="5.52536">
        <ele>1821</ele>
        <time>2009-01-29T14:36:51Z</time>
      </trkpt>
      <trkpt lat="44.77845" lon="5.5252">
        <ele>1814</ele>
        <time>2009-01-29T14:36:51Z</time>
      </trkpt>
      <trkpt lat="44.77782" lon="5.52447">
        <ele>1808</ele>
        <time>2009-01-29T14:36:51Z</time>
      </trkpt>
      <trkpt lat="44.7775" lon="5.52297">
        <ele>1804</ele>
        <time>2009-01-29T14:36:51Z</time>
      </trkpt>
      <trkpt lat="44.77712" lon="5.522">
        <ele>1805</ele>
        <time>2009-01-29T14:36:51Z</time>
      </trkpt>
      <trkpt lat="44.77662" lon="5.5207">
        <ele>1800</ele>
        <time>2009-01-29T14:36:51Z</time>
      </trkpt>
      <trkpt lat="44.77601" lon="5.51937">
        <ele>1778</ele>
        <time>2009-01-29T14:36:51Z</time>
      </trkpt>
      <trkpt lat="44.77548" lon="5.51874">
        <ele>1761</ele>
        <time>2009-01-29T14:36:51Z</time>
      </trkpt>
      <trkpt lat="44.7749" lon="5.51789">
        <ele>1748</ele>
        <time>2009-01-29T14:36:51Z</time>
      </trkpt>
      <trkpt lat="44.7747" lon="5.5186">
        <ele>1747</ele>
        <time>2009-01-29T14:36:51Z</time>
      </trkpt>
      <trkpt lat="44.77431" lon="5.51969">
        <ele>1749</ele>
        <time>2009-01-29T14:36:51Z</time>
      </trkpt>
      <trkpt lat="44.77418" lon="5.52031">
        <ele>1751</ele>
        <time>2009-01-29T14:36:51Z</time>
      </trkpt>
      <trkpt lat="44.77397" lon="5.52043">
        <ele>1755</ele>
        <time>2009-01-29T14:36:51Z</time>
      </trkpt>
      <trkpt lat="44.77369" lon="5.52082">
        <ele>1760</ele>
        <time>2009-01-29T14:36:51Z</time>
      </trkpt>
      <trkpt lat="44.77309" lon="5.52145">
        <ele>1766</ele>
        <time>2009-01-29T14:36:51Z</time>
      </trkpt>
      <trkpt lat="44.77266" lon="5.52146">
        <ele>1769</ele>
        <time>2009-01-29T14:36:51Z</time>
      </trkpt>
      <trkpt lat="44.77166" lon="5.52273">
        <ele>1781</ele>
        <time>2009-01-29T14:36:51Z</time>
      </trkpt>
      <trkpt lat="44.77109" lon="5.52301">
        <ele>1785</ele>
        <time>2009-01-29T14:36:51Z</time>
      </trkpt>
      <trkpt lat="44.7702" lon="5.52318">
        <ele>1780</ele>
        <time>2009-01-29T14:36:51Z</time>
      </trkpt>
      <trkpt lat="44.76931" lon="5.52354">
        <ele>1761</ele>
        <time>2009-01-29T14:36:51Z</time>
      </trkpt>
      <trkpt lat="44.76824" lon="5.52506">
        <ele>1745</ele>
        <time>2009-01-29T14:36:51Z</time>
      </trkpt>
      <trkpt lat="44.76732" lon="5.52551">
        <ele>1741</ele>
        <time>2009-01-29T14:36:51Z</time>
      </trkpt>
      <trkpt lat="44.76696" lon="5.52565">
        <ele>1740</ele>
        <time>2009-01-29T14:36:51Z</time>
      </trkpt>
      <trkpt lat="44.7662" lon="5.52532">
        <ele>1735</ele>
        <time>2009-01-29T14:36:51Z</time>
      </trkpt>
      <trkpt lat="44.76511" lon="5.52513">
        <ele>1724</ele>
        <time>2009-01-29T14:36:51Z</time>
      </trkpt>
      <trkpt lat="44.76472" lon="5.52521">
        <ele>1720</ele>
        <time>2009-01-29T14:36:51Z</time>
      </trkpt>
      <trkpt lat="44.76433" lon="5.52481">
        <ele>1714</ele>
        <time>2009-01-29T14:36:51Z</time>
      </trkpt>
      <trkpt lat="44.76368" lon="5.52401">
        <ele>1710</ele>
        <time>2009-01-29T14:36:51Z</time>
      </trkpt>
      <trkpt lat="44.76344" lon="5.52359">
        <ele>1710</ele>
        <time>2009-01-29T14:36:51Z</time>
      </trkpt>
      <trkpt lat="44.76301" lon="5.52378">
        <ele>1706</ele>
        <time>2009-01-29T14:36:51Z</time>
      </trkpt>
      <trkpt lat="44.76257" lon="5.52407">
        <ele>1702</ele>
        <time>2009-01-29T14:36:51Z</time>
      </trkpt>
      <trkpt lat="44.76184" lon="5.52444">
        <ele>1696</ele>
        <time>2009-01-29T14:36:51Z</time>
      </trkpt>
      <trkpt lat="44.76124" lon="5.52419">
        <ele>1693</ele>
        <time>2009-01-29T14:36:51Z</time>
      </trkpt>
      <trkpt lat="44.7608" lon="5.52366">
        <ele>1693</ele>
        <time>2009-01-29T14:36:51Z</time>
      </trkpt>
      <trkpt lat="44.76026" lon="5.52378">
        <ele>1689</ele>
        <time>2009-01-29T14:36:51Z</time>
      </trkpt>
      <trkpt lat="44.75974" lon="5.52375">
        <ele>1685</ele>
        <time>2009-01-29T14:36:51Z</time>
      </trkpt>
      <trkpt lat="44.75925" lon="5.52366">
        <ele>1681</ele>
        <time>2009-01-29T14:36:51Z</time>
      </trkpt>
      <trkpt lat="44.75876" lon="5.52351">
        <ele>1676</ele>
        <time>2009-01-29T14:36:51Z</time>
      </trkpt>
      <trkpt lat="44.75825" lon="5.52339">
        <ele>1672</ele>
        <time>2009-01-29T14:36:51Z</time>
      </trkpt>
      <trkpt lat="44.75784" lon="5.52333">
        <ele>1667</ele>
        <time>2009-01-29T14:36:51Z</time>
      </trkpt>
      <trkpt lat="44.7574" lon="5.52321">
        <ele>1662</ele>
        <time>2009-01-29T14:36:51Z</time>
      </trkpt>
      <trkpt lat="44.75652" lon="5.52256">
        <ele>1652</ele>
        <time>2009-01-29T14:36:51Z</time>
      </trkpt>
      <trkpt lat="44.7559" lon="5.5229">
        <ele>1644</ele>
        <time>2009-01-29T14:36:51Z</time>
      </trkpt>
      <trkpt lat="44.75523" lon="5.52343">
        <ele>1648</ele>
        <time>2009-01-29T14:36:51Z</time>
      </trkpt>
      <trkpt lat="44.75494" lon="5.52402">
        <ele>1648</ele>
        <time>2009-01-29T14:36:51Z</time>
      </trkpt>
      <trkpt lat="44.75472" lon="5.52467">
        <ele>1644</ele>
        <time>2009-01-29T14:36:51Z</time>
      </trkpt>
      <trkpt lat="44.75432" lon="5.52616">
        <ele>1638</ele>
        <time>2009-01-29T14:36:51Z</time>
      </trkpt>
      <trkpt lat="44.75412" lon="5.52672">
        <ele>1637</ele>
        <time>2009-01-29T14:36:51Z</time>
      </trkpt>
      <trkpt lat="44.75379" lon="5.52721">
        <ele>1643</ele>
        <time>2009-01-29T14:36:51Z</time>
      </trkpt>
      <trkpt lat="44.75308" lon="5.52777">
        <ele>1654</ele>
        <time>2009-01-29T14:36:51Z</time>
      </trkpt>
      <trkpt lat="44.75274" lon="5.52775">
        <ele>1660</ele>
        <time>2009-01-29T14:36:51Z</time>
      </trkpt>
      <trkpt lat="44.75182" lon="5.5276">
        <ele>1651</ele>
        <time>2009-01-29T14:36:51Z</time>
      </trkpt>
      <trkpt lat="44.75129" lon="5.52747">
        <ele>1637</ele>
        <time>2009-01-29T14:36:51Z</time>
      </trkpt>
      <trkpt lat="44.75078" lon="5.52789">
        <ele>1627</ele>
        <time>2009-01-29T14:36:51Z</time>
      </trkpt>
      <trkpt lat="44.7504" lon="5.52847">
        <ele>1620</ele>
        <time>2009-01-29T14:36:51Z</time>
      </trkpt>
      <trkpt lat="44.75021" lon="5.52887">
        <ele>1617</ele>
        <time>2009-01-29T14:36:51Z</time>
      </trkpt>
      <trkpt lat="44.74988" lon="5.52954">
        <ele>1611</ele>
        <time>2009-01-29T14:36:51Z</time>
      </trkpt>
      <trkpt lat="44.74941" lon="5.53008">
        <ele>1603</ele>
        <time>2009-01-29T14:36:51Z</time>
      </trkpt>
      <trkpt lat="44.74908" lon="5.53082">
        <ele>1598</ele>
        <time>2009-01-29T14:36:51Z</time>
      </trkpt>
      <trkpt lat="44.74882" lon="5.53204">
        <ele>1595</ele>
        <time>2009-01-29T14:36:51Z</time>
      </trkpt>
      <trkpt lat="44.74807" lon="5.53285">
        <ele>1593</ele>
        <time>2009-01-29T14:36:51Z</time>
      </trkpt>
      <trkpt lat="44.74722" lon="5.53274">
        <ele>1581</ele>
        <time>2009-01-29T14:36:51Z</time>
      </trkpt>
      <trkpt lat="44.74639" lon="5.53247">
        <ele>1574</ele>
        <time>2009-01-29T14:36:51Z</time>
      </trkpt>
      <trkpt lat="44.74541" lon="5.53304">
        <ele>1578</ele>
        <time>2009-01-29T14:36:51Z</time>
      </trkpt>
      <trkpt lat="44.74478" lon="5.53294">
        <ele>1579</ele>
        <time>2009-01-29T14:36:51Z</time>
      </trkpt>
      <trkpt lat="44.7444" lon="5.53286">
        <ele>1572</ele>
        <time>2009-01-29T14:36:51Z</time>
      </trkpt>
      <trkpt lat="44.74415" lon="5.53218">
        <ele>1574</ele>
        <time>2009-01-29T14:36:51Z</time>
      </trkpt>
      <trkpt lat="44.7439" lon="5.53147">
        <ele>1575</ele>
        <time>2009-01-29T14:36:51Z</time>
      </trkpt>
      <trkpt lat="44.74368" lon="5.53067">
        <ele>1569</ele>
        <time>2009-01-29T14:36:51Z</time>
      </trkpt>
      <trkpt lat="44.7431" lon="5.53051">
        <ele>1562</ele>
        <time>2009-01-29T14:36:51Z</time>
      </trkpt>
      <trkpt lat="44.74274" lon="5.53046">
        <ele>1562</ele>
        <time>2009-01-29T14:36:51Z</time>
      </trkpt>
      <trkpt lat="44.74249" lon="5.5307">
        <ele>1557</ele>
        <time>2009-01-29T14:36:51Z</time>
      </trkpt>
      <trkpt lat="44.74169" lon="5.53113">
        <ele>1545</ele>
        <time>2009-01-29T14:36:51Z</time>
      </trkpt>
      <trkpt lat="44.74139" lon="5.53111">
        <ele>1548</ele>
        <time>2009-01-29T14:36:51Z</time>
      </trkpt>
      <trkpt lat="44.74125" lon="5.53129">
        <ele>1545</ele>
        <time>2009-01-29T14:36:51Z</time>
      </trkpt>
      <trkpt lat="44.74182" lon="5.53129">
        <ele>1538</ele>
        <time>2009-01-29T14:36:51Z</time>
      </trkpt>
      <trkpt lat="44.74167" lon="5.5316">
        <ele>1531</ele>
        <time>2009-01-29T14:36:51Z</time>
      </trkpt>
      <trkpt lat="44.7414" lon="5.53155">
        <ele>1536</ele>
        <time>2009-01-29T14:36:51Z</time>
      </trkpt>
      <trkpt lat="44.7411" lon="5.53195">
        <ele>1528</ele>
        <time>2009-01-29T14:36:51Z</time>
      </trkpt>
      <trkpt lat="44.74069" lon="5.53195">
        <ele>1520</ele>
        <time>2009-01-29T14:36:51Z</time>
      </trkpt>
      <trkpt lat="44.74043" lon="5.53162">
        <ele>1522</ele>
        <time>2009-01-29T14:36:51Z</time>
      </trkpt>
      <trkpt lat="44.73984" lon="5.53121">
        <ele>1504</ele>
        <time>2009-01-29T14:36:51Z</time>
      </trkpt>
      <trkpt lat="44.73928" lon="5.53096">
        <ele>1489</ele>
        <time>2009-01-29T14:36:51Z</time>
      </trkpt>
      <trkpt lat="44.7382" lon="5.53118">
        <ele>1470</ele>
        <time>2009-01-29T14:36:51Z</time>
      </trkpt>
      <trkpt lat="44.73711" lon="5.532">
        <ele>1442</ele>
        <time>2009-01-29T14:36:51Z</time>
      </trkpt>
      <trkpt lat="44.73758" lon="5.53225">
        <ele>1426</ele>
        <time>2009-01-29T14:36:51Z</time>
      </trkpt>
      <trkpt lat="44.73832" lon="5.53229">
        <ele>1418</ele>
        <time>2009-01-29T14:36:51Z</time>
      </trkpt>
      <trkpt lat="44.73887" lon="5.53267">
        <ele>1412</ele>
        <time>2009-01-29T14:36:51Z</time>
      </trkpt>
      <trkpt lat="44.73938" lon="5.53314">
        <ele>1408</ele>
        <time>2009-01-29T14:36:51Z</time>
      </trkpt>
      <trkpt lat="44.73915" lon="5.53322">
        <ele>1398</ele>
        <time>2009-01-29T14:36:51Z</time>
      </trkpt>
      <trkpt lat="44.73872" lon="5.53332">
        <ele>1384</ele>
        <time>2009-01-29T14:36:51Z</time>
      </trkpt>
      <trkpt lat="44.73831" lon="5.53343">
        <ele>1373</ele>
        <time>2009-01-29T14:36:51Z</time>
      </trkpt>
      <trkpt lat="44.73778" lon="5.53381">
        <ele>1350</ele>
        <time>2009-01-29T14:36:51Z</time>
      </trkpt>
      <trkpt lat="44.73714" lon="5.53424">
        <ele>1330</ele>
        <time>2009-01-29T14:36:51Z</time>
      </trkpt>
      <trkpt lat="44.73652" lon="5.53471">
        <ele>1313</ele>
        <time>2009-01-29T14:36:51Z</time>
      </trkpt>
      <trkpt lat="44.73618" lon="5.53476">
        <ele>1317</ele>
        <time>2009-01-29T14:36:51Z</time>
      </trkpt>
      <trkpt lat="44.73578" lon="5.53455">
        <ele>1327</ele>
        <time>2009-01-29T14:36:51Z</time>
      </trkpt>
      <trkpt lat="44.73542" lon="5.5344">
        <ele>1322</ele>
        <time>2009-01-29T14:36:51Z</time>
      </trkpt>
      <trkpt lat="44.73492" lon="5.53472">
        <ele>1300</ele>
        <time>2009-01-29T14:36:51Z</time>
      </trkpt>
      <trkpt lat="44.73455" lon="5.53501">
        <ele>1278</ele>
        <time>2009-01-29T14:36:51Z</time>
      </trkpt>
      <trkpt lat="44.73396" lon="5.5346">
        <ele>1260</ele>
        <time>2009-01-29T14:36:51Z</time>
      </trkpt>
      <trkpt lat="44.73348" lon="5.53407">
        <ele>1248</ele>
        <time>2009-01-29T14:36:51Z</time>
      </trkpt>
      <trkpt lat="44.7332" lon="5.53345">
        <ele>1243</ele>
        <time>2009-01-29T14:36:51Z</time>
      </trkpt>
      <trkpt lat="44.733" lon="5.53268">
        <ele>1237</ele>
        <time>2009-01-29T14:36:51Z</time>
      </trkpt>
      <trkpt lat="44.73238" lon="5.53243">
        <ele>1210</ele>
        <time>2009-01-29T14:36:51Z</time>
      </trkpt>
      <trkpt lat="44.73211" lon="5.53222">
        <ele>1198</ele>
        <time>2009-01-29T14:36:51Z</time>
      </trkpt>
      <trkpt lat="44.73184" lon="5.5323">
        <ele>1190</ele>
        <time>2009-01-29T14:36:51Z</time>
      </trkpt>
      <trkpt lat="44.73165" lon="5.53194">
        <ele>1180</ele>
        <time>2009-01-29T14:36:51Z</time>
      </trkpt>
      <trkpt lat="44.73166" lon="5.5315">
        <ele>1176</ele>
        <time>2009-01-29T14:36:51Z</time>
      </trkpt>
      <trkpt lat="44.73179" lon="5.53097">
        <ele>1174</ele>
        <time>2009-01-29T14:36:51Z</time>
      </trkpt>
      <trkpt lat="44.73124" lon="5.53138">
        <ele>1161</ele>
        <time>2009-01-29T14:36:51Z</time>
      </trkpt>
      <trkpt lat="44.73128" lon="5.53066">
        <ele>1152</ele>
        <time>2009-01-29T14:36:51Z</time>
      </trkpt>
      <trkpt lat="44.73151" lon="5.52979">
        <ele>1149</ele>
        <time>2009-01-29T14:36:51Z</time>
      </trkpt>
      <trkpt lat="44.73156" lon="5.52951">
        <ele>1147</ele>
        <time>2009-01-29T14:36:51Z</time>
      </trkpt>
      <trkpt lat="44.73181" lon="5.52873">
        <ele>1143</ele>
        <time>2009-01-29T14:36:51Z</time>
      </trkpt>
      <trkpt lat="44.73113" lon="5.52958">
        <ele>1128</ele>
        <time>2009-01-29T14:36:51Z</time>
      </trkpt>
      <trkpt lat="44.73075" lon="5.53025">
        <ele>1123</ele>
        <time>2009-01-29T14:36:51Z</time>
      </trkpt>
      <trkpt lat="44.73038" lon="5.53067">
        <ele>1117</ele>
        <time>2009-01-29T14:36:51Z</time>
      </trkpt>
      <trkpt lat="44.73002" lon="5.53081">
        <ele>1108</ele>
        <time>2009-01-29T14:36:51Z</time>
      </trkpt>
      <trkpt lat="44.7295" lon="5.53135">
        <ele>1102</ele>
        <time>2009-01-29T14:36:51Z</time>
      </trkpt>
      <trkpt lat="44.72918" lon="5.5318">
        <ele>1098</ele>
        <time>2009-01-29T14:36:51Z</time>
      </trkpt>
      <trkpt lat="44.72917" lon="5.53291">
        <ele>1081</ele>
        <time>2009-01-29T14:36:51Z</time>
      </trkpt>
      <trkpt lat="44.72936" lon="5.53323">
        <ele>1079</ele>
        <time>2009-01-29T14:36:51Z</time>
      </trkpt>
      <trkpt lat="44.72985" lon="5.53411">
        <ele>1071</ele>
        <time>2009-01-29T14:36:51Z</time>
      </trkpt>
      <trkpt lat="44.73024" lon="5.53483">
        <ele>1068</ele>
        <time>2009-01-29T14:36:51Z</time>
      </trkpt>
      <trkpt lat="44.73059" lon="5.53643">
        <ele>1051</ele>
        <time>2009-01-29T14:36:51Z</time>
      </trkpt>
      <trkpt lat="44.7309" lon="5.53768">
        <ele>1034</ele>
        <time>2009-01-29T14:36:51Z</time>
      </trkpt>
      <trkpt lat="44.73092" lon="5.53844">
        <ele>1025</ele>
        <time>2009-01-29T14:36:51Z</time>
      </trkpt>
      <trkpt lat="44.73094" lon="5.53916">
        <ele>1019</ele>
        <time>2009-01-29T14:36:51Z</time>
      </trkpt>
      <trkpt lat="44.73113" lon="5.53965">
        <ele>1019</ele>
        <time>2009-01-29T14:36:51Z</time>
      </trkpt>
      <trkpt lat="44.73098" lon="5.54014">
        <ele>1010</ele>
        <time>2009-01-29T14:36:51Z</time>
      </trkpt>
      <trkpt lat="44.7307" lon="5.53994">
        <ele>1006</ele>
        <time>2009-01-29T14:36:51Z</time>
      </trkpt>
      <trkpt lat="44.73032" lon="5.53973">
        <ele>1000</ele>
        <time>2009-01-29T14:36:51Z</time>
      </trkpt>
      <trkpt lat="44.73059" lon="5.54063">
        <ele>994</ele>
        <time>2009-01-29T14:36:51Z</time>
      </trkpt>
      <trkpt lat="44.73026" lon="5.54013">
        <ele>992</ele>
        <time>2009-01-29T14:36:51Z</time>
      </trkpt>
      <trkpt lat="44.73004" lon="5.54003">
        <ele>987</ele>
        <time>2009-01-29T14:36:51Z</time>
      </trkpt>
      <trkpt lat="44.72936" lon="5.53958">
        <ele>974</ele>
        <time>2009-01-29T14:36:51Z</time>
      </trkpt>
      <trkpt lat="44.72876" lon="5.54002">
        <ele>955</ele>
        <time>2009-01-29T14:36:51Z</time>
      </trkpt>
      <trkpt lat="44.72833" lon="5.53993">
        <ele>954</ele>
        <time>2009-01-29T14:36:51Z</time>
      </trkpt>
      <trkpt lat="44.72792" lon="5.54013">
        <ele>947</ele>
        <time>2009-01-29T14:36:51Z</time>
      </trkpt>
      <trkpt lat="44.72757" lon="5.54061">
        <ele>936</ele>
        <time>2009-01-29T14:36:51Z</time>
      </trkpt>
      <trkpt lat="44.72694" lon="5.5407">
        <ele>924</ele>
        <time>2009-01-29T14:36:51Z</time>
      </trkpt>
      <trkpt lat="44.72655" lon="5.54087">
        <ele>912</ele>
        <time>2009-01-29T14:36:51Z</time>
      </trkpt>
      <trkpt lat="44.72617" lon="5.54009">
        <ele>908</ele>
        <time>2009-01-29T14:36:51Z</time>
      </trkpt>
      <trkpt lat="44.72602" lon="5.53961">
        <ele>909</ele>
        <time>2009-01-29T14:36:51Z</time>
      </trkpt>
      <trkpt lat="44.72554" lon="5.53933">
        <ele>895</ele>
        <time>2009-01-29T14:36:51Z</time>
      </trkpt>
      <trkpt lat="44.72532" lon="5.53903">
        <ele>885</ele>
        <time>2009-01-29T14:36:51Z</time>
      </trkpt>
      <trkpt lat="44.72525" lon="5.53843">
        <ele>878</ele>
        <time>2009-01-29T14:36:51Z</time>
      </trkpt>
      <trkpt lat="44.72499" lon="5.53788">
        <ele>865</ele>
        <time>2009-01-29T14:36:51Z</time>
      </trkpt>
      <trkpt lat="44.72449" lon="5.53731">
        <ele>849</ele>
        <time>2009-01-29T14:36:51Z</time>
      </trkpt>
      <trkpt lat="44.72446" lon="5.53762">
        <ele>841</ele>
        <time>2009-01-29T14:36:51Z</time>
      </trkpt>
      <trkpt lat="44.72429" lon="5.53736">
        <ele>838</ele>
        <time>2009-01-29T14:36:51Z</time>
      </trkpt>
      <trkpt lat="44.72366" lon="5.53726">
        <ele>829</ele>
        <time>2009-01-29T14:36:51Z</time>
      </trkpt>
      <trkpt lat="44.72327" lon="5.53693">
        <ele>828</ele>
        <time>2009-01-29T14:36:51Z</time>
      </trkpt>
      <trkpt lat="44.72305" lon="5.53657">
        <ele>821</ele>
        <time>2009-01-29T14:36:51Z</time>
      </trkpt>
      <trkpt lat="44.72293" lon="5.53612">
        <ele>817</ele>
        <time>2009-01-29T14:36:51Z</time>
      </trkpt>
      <trkpt lat="44.72251" lon="5.536">
        <ele>788</ele>
        <time>2009-01-29T14:36:51Z</time>
      </trkpt>
      <trkpt lat="44.7221" lon="5.53588">
        <ele>769</ele>
        <time>2009-01-29T14:36:51Z</time>
      </trkpt>
      <trkpt lat="44.72162" lon="5.53547">
        <ele>757</ele>
        <time>2009-01-29T14:36:51Z</time>
      </trkpt>
      <trkpt lat="44.72136" lon="5.53527">
        <ele>750</ele>
        <time>2009-01-29T14:36:51Z</time>
      </trkpt>
      <trkpt lat="44.72113" lon="5.53472">
        <ele>750</ele>
        <time>2009-01-29T14:36:51Z</time>
      </trkpt>
      <trkpt lat="44.72069" lon="5.53482">
        <ele>732</ele>
        <time>2009-01-29T14:36:51Z</time>
      </trkpt>
      <trkpt lat="44.72041" lon="5.53462">
        <ele>729</ele>
        <time>2009-01-29T14:36:51Z</time>
      </trkpt>
      <trkpt lat="44.7201" lon="5.53378">
        <ele>742</ele>
        <time>2009-01-29T14:36:51Z</time>
      </trkpt>
      <trkpt lat="44.71958" lon="5.53381">
        <ele>717</ele>
        <time>2009-01-29T14:36:51Z</time>
      </trkpt>
      <trkpt lat="44.71922" lon="5.5337">
        <ele>711</ele>
        <time>2009-01-29T14:36:51Z</time>
      </trkpt>
      <trkpt lat="44.71854" lon="5.53385">
        <ele>689</ele>
        <time>2009-01-29T14:36:51Z</time>
      </trkpt>
      <trkpt lat="44.71834" lon="5.53393">
        <ele>681</ele>
        <time>2009-01-29T14:36:51Z</time>
      </trkpt>
      <trkpt lat="44.71769" lon="5.53307">
        <ele>689</ele>
        <time>2009-01-29T14:36:51Z</time>
      </trkpt>
      <trkpt lat="44.71655" lon="5.53203">
        <ele>664</ele>
        <time>2009-01-29T14:36:51Z</time>
      </trkpt>
      <trkpt lat="44.71628" lon="5.53179">
        <ele>660</ele>
        <time>2009-01-29T14:36:51Z</time>
      </trkpt>
      <trkpt lat="44.71611" lon="5.53137">
        <ele>661</ele>
        <time>2009-01-29T14:36:51Z</time>
      </trkpt>
      <trkpt lat="44.71589" lon="5.53063">
        <ele>661</ele>
        <time>2009-01-29T14:36:51Z</time>
      </trkpt>
      <trkpt lat="44.71578" lon="5.53034">
        <ele>658</ele>
        <time>2009-01-29T14:36:51Z</time>
      </trkpt>
      <trkpt lat="44.71508" lon="5.53068">
        <ele>645</ele>
        <time>2009-01-29T14:36:51Z</time>
      </trkpt>
      <trkpt lat="44.71491" lon="5.53039">
        <ele>643</ele>
        <time>2009-01-29T14:36:51Z</time>
      </trkpt>
      <trkpt lat="44.71444" lon="5.53014">
        <ele>660</ele>
        <time>2009-01-29T14:36:51Z</time>
      </trkpt>
      <trkpt lat="44.71401" lon="5.53015">
        <ele>675</ele>
        <time>2009-01-29T14:36:51Z</time>
      </trkpt>
      <trkpt lat="44.71357" lon="5.53">
        <ele>672</ele>
        <time>2009-01-29T14:36:51Z</time>
      </trkpt>
      <trkpt lat="44.71304" lon="5.53044">
        <ele>695</ele>
        <time>2009-01-29T14:36:51Z</time>
      </trkpt>
      <trkpt lat="44.71253" lon="5.53066">
        <ele>700</ele>
        <time>2009-01-29T14:36:51Z</time>
      </trkpt>
      <trkpt lat="44.71202" lon="5.53123">
        <ele>721</ele>
        <time>2009-01-29T14:36:51Z</time>
      </trkpt>
      <trkpt lat="44.71186" lon="5.53129">
        <ele>722</ele>
        <time>2009-01-29T14:36:51Z</time>
      </trkpt>
      <trkpt lat="44.71106" lon="5.53121">
        <ele>708</ele>
        <time>2009-01-29T14:36:51Z</time>
      </trkpt>
      <trkpt lat="44.71005" lon="5.53166">
        <ele>700</ele>
        <time>2009-01-29T14:36:51Z</time>
      </trkpt>
      <trkpt lat="44.70959" lon="5.53068">
        <ele>688</ele>
        <time>2009-01-29T14:36:51Z</time>
      </trkpt>
      <trkpt lat="44.70919" lon="5.5305">
        <ele>700</ele>
        <time>2009-01-29T14:36:51Z</time>
      </trkpt>
      <trkpt lat="44.70788" lon="5.53144">
        <ele>706</ele>
        <time>2009-01-29T14:36:51Z</time>
      </trkpt>
      <trkpt lat="44.70743" lon="5.53138">
        <ele>692</ele>
        <time>2009-01-29T14:36:51Z</time>
      </trkpt>
      <trkpt lat="44.70709" lon="5.53146">
        <ele>688</ele>
        <time>2009-01-29T14:36:51Z</time>
      </trkpt>
      <trkpt lat="44.70688" lon="5.53148">
        <ele>686</ele>
        <time>2009-01-29T14:36:51Z</time>
      </trkpt>
      <trkpt lat="44.70678" lon="5.53138">
        <ele>682</ele>
        <time>2009-01-29T14:36:51Z</time>
      </trkpt>
      <trkpt lat="44.70666" lon="5.53105">
        <ele>679</ele>
        <time>2009-01-29T14:36:51Z</time>
      </trkpt>
      <trkpt lat="44.7069" lon="5.52985">
        <ele>686</ele>
        <time>2009-01-29T14:36:51Z</time>
      </trkpt>
      <trkpt lat="44.70677" lon="5.52983">
        <ele>689</ele>
        <time>2009-01-29T14:36:51Z</time>
      </trkpt>
      <trkpt lat="44.70668" lon="5.53006">
        <ele>687</ele>
        <time>2009-01-29T14:36:51Z</time>
      </trkpt>
      <trkpt lat="44.70646" lon="5.53068">
        <ele>688</ele>
        <time>2009-01-29T14:36:51Z</time>
      </trkpt>
      <trkpt lat="44.70619" lon="5.53093">
        <ele>696</ele>
        <time>2009-01-29T14:36:51Z</time>
      </trkpt>
      <trkpt lat="44.70588" lon="5.5311">
        <ele>714</ele>
        <time>2009-01-29T14:36:51Z</time>
      </trkpt>
      <trkpt lat="44.70559" lon="5.53136">
        <ele>728</ele>
        <time>2009-01-29T14:36:51Z</time>
      </trkpt>
      <trkpt lat="44.70526" lon="5.53142">
        <ele>744</ele>
        <time>2009-01-29T14:36:51Z</time>
      </trkpt>
      <trkpt lat="44.70467" lon="5.53126">
        <ele>747</ele>
        <time>2009-01-29T14:36:51Z</time>
      </trkpt>
      <trkpt lat="44.70412" lon="5.53135">
        <ele>760</ele>
        <time>2009-01-29T14:36:51Z</time>
      </trkpt>
      <trkpt lat="44.70363" lon="5.53135">
        <ele>768</ele>
        <time>2009-01-29T14:36:51Z</time>
      </trkpt>
      <trkpt lat="44.70334" lon="5.53113">
        <ele>759</ele>
        <time>2009-01-29T14:36:51Z</time>
      </trkpt>
      <trkpt lat="44.70237" lon="5.5312">
        <ele>790</ele>
        <time>2009-01-29T14:36:51Z</time>
      </trkpt>
      <trkpt lat="44.70208" lon="5.53106">
        <ele>793</ele>
        <time>2009-01-29T14:36:51Z</time>
      </trkpt>
      <trkpt lat="44.70121" lon="5.53055">
        <ele>802</ele>
        <time>2009-01-29T14:36:51Z</time>
      </trkpt>
      <trkpt lat="44.70077" lon="5.53039">
        <ele>810</ele>
        <time>2009-01-29T14:36:51Z</time>
      </trkpt>
      <trkpt lat="44.70057" lon="5.53044">
        <ele>818</ele>
        <time>2009-01-29T14:36:51Z</time>
      </trkpt>
      <trkpt lat="44.70039" lon="5.53067">
        <ele>823</ele>
        <time>2009-01-29T14:36:51Z</time>
      </trkpt>
      <trkpt lat="44.70033" lon="5.53096">
        <ele>829</ele>
        <time>2009-01-29T14:36:51Z</time>
      </trkpt>
      <trkpt lat="44.70028" lon="5.53157">
        <ele>841</ele>
        <time>2009-01-29T14:36:51Z</time>
      </trkpt>
      <trkpt lat="44.7003" lon="5.53219">
        <ele>850</ele>
        <time>2009-01-29T14:36:51Z</time>
      </trkpt>
      <trkpt lat="44.70038" lon="5.53273">
        <ele>857</ele>
        <time>2009-01-29T14:36:51Z</time>
      </trkpt>
      <trkpt lat="44.7004" lon="5.53321">
        <ele>858</ele>
        <time>2009-01-29T14:36:51Z</time>
      </trkpt>
      <trkpt lat="44.70031" lon="5.5335">
        <ele>855</ele>
        <time>2009-01-29T14:36:51Z</time>
      </trkpt>
      <trkpt lat="44.70026" lon="5.53386">
        <ele>856</ele>
        <time>2009-01-29T14:36:51Z</time>
      </trkpt>
      <trkpt lat="44.69995" lon="5.53354">
        <ele>837</ele>
        <time>2009-01-29T14:36:51Z</time>
      </trkpt>
      <trkpt lat="44.69973" lon="5.53345">
        <ele>837</ele>
        <time>2009-01-29T14:36:51Z</time>
      </trkpt>
      <trkpt lat="44.69953" lon="5.53353">
        <ele>842</ele>
        <time>2009-01-29T14:36:51Z</time>
      </trkpt>
      <trkpt lat="44.69943" lon="5.53353">
        <ele>843</ele>
        <time>2009-01-29T14:36:51Z</time>
      </trkpt>
      <trkpt lat="44.69924" lon="5.53344">
        <ele>844</ele>
        <time>2009-01-29T14:36:51Z</time>
      </trkpt>
      <trkpt lat="44.69881" lon="5.53343">
        <ele>847</ele>
        <time>2009-01-29T14:36:51Z</time>
      </trkpt>
      <trkpt lat="44.69881" lon="5.53329">
        <ele>842</ele>
        <time>2009-01-29T14:36:51Z</time>
      </trkpt>
      <trkpt lat="44.69868" lon="5.5332">
        <ele>839</ele>
        <time>2009-01-29T14:36:51Z</time>
      </trkpt>
      <trkpt lat="44.6985" lon="5.53294">
        <ele>830</ele>
        <time>2009-01-29T14:36:51Z</time>
      </trkpt>
      <trkpt lat="44.69856" lon="5.53222">
        <ele>807</ele>
        <time>2009-01-29T14:36:51Z</time>
      </trkpt>
      <trkpt lat="44.69839" lon="5.53124">
        <ele>799</ele>
        <time>2009-01-29T14:36:51Z</time>
      </trkpt>
      <trkpt lat="44.69799" lon="5.53053">
        <ele>803</ele>
        <time>2009-01-29T14:36:51Z</time>
      </trkpt>
      <trkpt lat="44.69781" lon="5.52997">
        <ele>799</ele>
        <time>2009-01-29T14:36:51Z</time>
      </trkpt>
      <trkpt lat="44.6977" lon="5.52941">
        <ele>791</ele>
        <time>2009-01-29T14:36:51Z</time>
      </trkpt>
      <trkpt lat="44.69752" lon="5.52899">
        <ele>789</ele>
        <time>2009-01-29T14:36:51Z</time>
      </trkpt>
      <trkpt lat="44.6972" lon="5.52889">
        <ele>798</ele>
        <time>2009-01-29T14:36:51Z</time>
      </trkpt>
      <trkpt lat="44.69704" lon="5.52879">
        <ele>802</ele>
        <time>2009-01-29T14:36:51Z</time>
      </trkpt>
      <trkpt lat="44.69684" lon="5.52843">
        <ele>795</ele>
        <time>2009-01-29T14:36:51Z</time>
      </trkpt>
      <trkpt lat="44.69678" lon="5.52838">
        <ele>793</ele>
        <time>2009-01-29T14:36:51Z</time>
      </trkpt>
      <trkpt lat="44.69653" lon="5.52844">
        <ele>793</ele>
        <time>2009-01-29T14:36:51Z</time>
      </trkpt>
      <trkpt lat="44.69595" lon="5.52787">
        <ele>781</ele>
        <time>2009-01-29T14:36:51Z</time>
      </trkpt>
      <trkpt lat="44.69563" lon="5.52748">
        <ele>774</ele>
        <time>2009-01-29T14:36:51Z</time>
      </trkpt>
      <trkpt lat="44.69535" lon="5.52695">
        <ele>762</ele>
        <time>2009-01-29T14:36:51Z</time>
      </trkpt>
      <trkpt lat="44.69514" lon="5.52628">
        <ele>743</ele>
        <time>2009-01-29T14:36:51Z</time>
      </trkpt>
      <trkpt lat="44.69481" lon="5.52585">
        <ele>738</ele>
        <time>2009-01-29T14:36:51Z</time>
      </trkpt>
      <trkpt lat="44.69433" lon="5.52563">
        <ele>741</ele>
        <time>2009-01-29T14:36:51Z</time>
      </trkpt>
      <trkpt lat="44.69298" lon="5.52542">
        <ele>743</ele>
        <time>2009-01-29T14:36:51Z</time>
      </trkpt>
      <trkpt lat="44.69277" lon="5.52529">
        <ele>738</ele>
        <time>2009-01-29T14:36:51Z</time>
      </trkpt>
      <trkpt lat="44.69272" lon="5.52512">
        <ele>729</ele>
        <time>2009-01-29T14:36:51Z</time>
      </trkpt>
      <trkpt lat="44.69266" lon="5.52489">
        <ele>717</ele>
        <time>2009-01-29T14:36:51Z</time>
      </trkpt>
      <trkpt lat="44.69219" lon="5.52472">
        <ele>720</ele>
        <time>2009-01-29T14:36:51Z</time>
      </trkpt>
      <trkpt lat="44.69196" lon="5.52429">
        <ele>707</ele>
        <time>2009-01-29T14:36:51Z</time>
      </trkpt>
      <trkpt lat="44.69192" lon="5.52367">
        <ele>683</ele>
        <time>2009-01-29T14:36:51Z</time>
      </trkpt>
      <trkpt lat="44.69172" lon="5.52318">
        <ele>669</ele>
        <time>2009-01-29T14:36:51Z</time>
      </trkpt>
      <trkpt lat="44.69118" lon="5.52262">
        <ele>669</ele>
        <time>2009-01-29T14:36:51Z</time>
      </trkpt>
      <trkpt lat="44.69106" lon="5.52239">
        <ele>664</ele>
        <time>2009-01-29T14:36:51Z</time>
      </trkpt>
      <trkpt lat="44.69083" lon="5.52211">
        <ele>659</ele>
        <time>2009-01-29T14:36:51Z</time>
      </trkpt>
      <trkpt lat="44.6904" lon="5.52137">
        <ele>643</ele>
        <time>2009-01-29T14:36:51Z</time>
      </trkpt>
      <trkpt lat="44.68985" lon="5.52096">
        <ele>639</ele>
        <time>2009-01-29T14:36:51Z</time>
      </trkpt>
      <trkpt lat="44.68938" lon="5.52073">
        <ele>636</ele>
        <time>2009-01-29T14:36:51Z</time>
      </trkpt>
      <trkpt lat="44.68885" lon="5.52054">
        <ele>635</ele>
        <time>2009-01-29T14:36:51Z</time>
      </trkpt>
      <trkpt lat="44.68826" lon="5.52019">
        <ele>632</ele>
        <time>2009-01-29T14:36:51Z</time>
      </trkpt>
      <trkpt lat="44.68801" lon="5.51988">
        <ele>626</ele>
        <time>2009-01-29T14:36:51Z</time>
      </trkpt>
      <trkpt lat="44.68767" lon="5.5194">
        <ele>621</ele>
        <time>2009-01-29T14:36:51Z</time>
      </trkpt>
      <trkpt lat="44.68735" lon="5.51901">
        <ele>616</ele>
        <time>2009-01-29T14:36:51Z</time>
      </trkpt>
      <trkpt lat="44.68723" lon="5.51856">
        <ele>607</ele>
        <time>2009-01-29T14:36:51Z</time>
      </trkpt>
      <trkpt lat="44.68712" lon="5.51841">
        <ele>607</ele>
        <time>2009-01-29T14:36:51Z</time>
      </trkpt>
      <trkpt lat="44.68728" lon="5.5181">
        <ele>600</ele>
        <time>2009-01-29T14:36:51Z</time>
      </trkpt>
      <trkpt lat="44.6876" lon="5.51776">
        <ele>595</ele>
        <time>2009-01-29T14:36:51Z</time>
      </trkpt>
      <trkpt lat="44.68799" lon="5.51721">
        <ele>597</ele>
        <time>2009-01-29T14:36:51Z</time>
      </trkpt>
      <trkpt lat="44.68797" lon="5.51685">
        <ele>600</ele>
        <time>2009-01-29T14:36:51Z</time>
      </trkpt>
      <trkpt lat="44.68801" lon="5.5164">
        <ele>611</ele>
        <time>2009-01-29T14:36:51Z</time>
      </trkpt>
      <trkpt lat="44.68792" lon="5.51573">
        <ele>608</ele>
        <time>2009-01-29T14:36:51Z</time>
      </trkpt>
      <trkpt lat="44.68793" lon="5.51535">
        <ele>608</ele>
        <time>2009-01-29T14:36:51Z</time>
      </trkpt>
      <trkpt lat="44.68833" lon="5.51466">
        <ele>616</ele>
        <time>2009-01-29T14:36:51Z</time>
      </trkpt>
      <trkpt lat="44.6888" lon="5.51376">
        <ele>617</ele>
        <time>2009-01-29T14:36:51Z</time>
      </trkpt>
      <trkpt lat="44.68891" lon="5.51301">
        <ele>611</ele>
        <time>2009-01-29T14:36:51Z</time>
      </trkpt>
      <trkpt lat="44.68958" lon="5.51193">
        <ele>619</ele>
        <time>2009-01-29T14:36:51Z</time>
      </trkpt>
      <trkpt lat="44.68989" lon="5.51141">
        <ele>614</ele>
        <time>2009-01-29T14:36:51Z</time>
      </trkpt>
      <trkpt lat="44.69041" lon="5.51076">
        <ele>618</ele>
        <time>2009-01-29T14:36:51Z</time>
      </trkpt>
      <trkpt lat="44.69066" lon="5.51043">
        <ele>623</ele>
        <time>2009-01-29T14:36:51Z</time>
      </trkpt>
      <trkpt lat="44.69086" lon="5.50998">
        <ele>623</ele>
        <time>2009-01-29T14:36:51Z</time>
      </trkpt>
      <trkpt lat="44.69111" lon="5.509">
        <ele>617</ele>
        <time>2009-01-29T14:36:51Z</time>
      </trkpt>
      <trkpt lat="44.69134" lon="5.50819">
        <ele>618</ele>
        <time>2009-01-29T14:36:51Z</time>
      </trkpt>
      <trkpt lat="44.69165" lon="5.50766">
        <ele>622</ele>
        <time>2009-01-29T14:36:51Z</time>
      </trkpt>
      <trkpt lat="44.69184" lon="5.50707">
        <ele>622</ele>
        <time>2009-01-29T14:36:51Z</time>
      </trkpt>
      <trkpt lat="44.69206" lon="5.50614">
        <ele>623</ele>
        <time>2009-01-29T14:36:51Z</time>
      </trkpt>
      <trkpt lat="44.69217" lon="5.50546">
        <ele>621</ele>
        <time>2009-01-29T14:36:51Z</time>
      </trkpt>
      <trkpt lat="44.69239" lon="5.50491">
        <ele>625</ele>
        <time>2009-01-29T14:36:51Z</time>
      </trkpt>
      <trkpt lat="44.69241" lon="5.5039">
        <ele>619</ele>
        <time>2009-01-29T14:36:51Z</time>
      </trkpt>
      <trkpt lat="44.69244" lon="5.50302">
        <ele>614</ele>
        <time>2009-01-29T14:36:51Z</time>
      </trkpt>
      <trkpt lat="44.69248" lon="5.50266">
        <ele>611</ele>
        <time>2009-01-29T14:36:51Z</time>
      </trkpt>
      <trkpt lat="44.69232" lon="5.50203">
        <ele>605</ele>
        <time>2009-01-29T14:36:51Z</time>
      </trkpt>
      <trkpt lat="44.69219" lon="5.50163">
        <ele>602</ele>
        <time>2009-01-29T14:36:51Z</time>
      </trkpt>
      <trkpt lat="44.69218" lon="5.50147">
        <ele>601</ele>
        <time>2009-01-29T14:36:51Z</time>
      </trkpt>
      <trkpt lat="44.69224" lon="5.50067">
        <ele>604</ele>
        <time>2009-01-29T14:36:51Z</time>
      </trkpt>
      <trkpt lat="44.69214" lon="5.49942">
        <ele>599</ele>
        <time>2009-01-29T14:36:51Z</time>
      </trkpt>
      <trkpt lat="44.69334" lon="5.49698">
        <ele>595</ele>
        <time>2009-01-29T14:36:51Z</time>
      </trkpt>
      <trkpt lat="44.69353" lon="5.49634">
        <ele>599</ele>
        <time>2009-01-29T14:36:51Z</time>
      </trkpt>
      <trkpt lat="44.69407" lon="5.49134">
        <ele>572</ele>
        <time>2009-01-29T14:36:51Z</time>
      </trkpt>
      <trkpt lat="44.69417" lon="5.49042">
        <ele>571</ele>
        <time>2009-01-29T14:36:51Z</time>
      </trkpt>
      <trkpt lat="44.69408" lon="5.49048">
        <ele>570</ele>
        <time>2009-01-29T14:36:51Z</time>
      </trkpt>
      <trkpt lat="44.69381" lon="5.49073">
        <ele>568</ele>
        <time>2009-01-29T14:36:51Z</time>
      </trkpt>
      <trkpt lat="44.69361" lon="5.49088">
        <ele>566</ele>
        <time>2009-01-29T14:36:51Z</time>
      </trkpt>
      <trkpt lat="44.69307" lon="5.49072">
        <ele>560</ele>
        <time>2009-01-29T14:36:51Z</time>
      </trkpt>
      <trkpt lat="44.69278" lon="5.49064">
        <ele>560</ele>
        <time>2009-01-29T14:36:51Z</time>
      </trkpt>
      <trkpt lat="44.69267" lon="5.49019">
        <ele>560</ele>
        <time>2009-01-29T14:36:51Z</time>
      </trkpt>
    </trkseg>
  </trk>
</gpx>